Location: Manchester NH
(43.0000°N, 71.5000°W)
Time: 02:32:35
(UTC-04:00)

Envisat - Pass Details

Date: 27 April 2019
Orbit: 764 x 766 km, 98.2° (Epoch: 19 May)

Event Time Altitude Azimuth Distance (km) Brightness Sun altitude
Rises 20:42:24 0° 215° (SW) 3,220 6.3 -10.7°
Reaches altitude 10° 20:45:55 10° 241° (WSW) 2,300 5.9 -11.3°
Maximum altitude 20:48:25 14° 271° (W) 2,058 6.2 -11.7°
Drops below altitude 10° 20:50:56 10° 301° (WNW) 2,308 7.0 -12.1°
Sets 20:54:30 0° 327° (NNW) 3,240 7.6 -12.6°
